Weather History for Clintonville, WI

Change the Weather History Date:

Monday, April 14, 2014

  Actual Average Record
Temperature  
Mean Temperature 30 °F -  
Max Temperature 35 °F 54 °F 87 °F (2003)
Min Temperature 23 °F 32 °F 19 °F (1990)
Degree Days  
Heating Degree Days 36    
Moisture  
Dew Point 27 °F    
Average Humidity 86    
Maximum Humidity 100    
Minimum Humidity 64    
Precipitation  
Precipitation 0.28 in - - ()
Sea Level Pressure  
Sea Level Pressure 29.77 in    
Wind  
Wind Speed 12 mph (North)    
Max Wind Speed 20 mph    
Max Gust Speed 31 mph    
Visibility 6 miles    
Events Rain , Snow    
Averages and records for this station are not official NWS values.
T = Trace of Precipitation, MM = Missing Value Source: NWS Daily Summary

Daily Weather History Graph

Daily Weather History Graph

Search for Another Location

Airport:

Trip Planner

Search our weather history database for the weather conditions in past years. The results will help you decide how hot, cold, wet, or windy it might be!

Date:

Astronomy

Apr. 14, 2014 Rise Set
Actual Time 6:12 AM CDT 7:38 PM CDT
Civil Twilight 5:42 AM CDT 8:09 PM CDT
Nautical Twilight 5:05 AM CDT 8:45 PM CDT
Astronomical Twilight 4:26 AM CDT 9:25 PM CDT
Moon 7:16 PM CDT (4/14) 5:46 AM CDT (4/14)
Length of Visible Light 14h 26m
Length of Day
13h 26m
Full, 100% of the Moon is Illuminated
Apr 14
Full
Apr 15
Full
Apr 22
Last Quarter
Apr 29
New
May 6
First Quarter

Hourly Weather History & Observations

Time (CDT) Temp. Windchill Dew Point Humidity Pressure Visibility Wind Dir Wind Speed Gust Speed Precip Events Conditions
12:09 AM 35.6 °F 25.9 °F 33.8 °F 93% 29.61 in 4.0 mi North 16.1 mph 25.3 mph 0.02 in   Overcast
12:15 AM 33.8 °F 24.3 °F 33.8 °F 100% 29.61 in 5.0 mi North 13.8 mph 25.3 mph 0.03 in   Overcast
12:28 AM 35.6 °F 26.6 °F 33.8 °F 93% 29.61 in 7.0 mi North 13.8 mph 25.3 mph 0.03 in Rain Light Rain
12:35 AM 33.8 °F 25.8 °F 33.8 °F 100% 29.61 in 7.0 mi NNE 10.4 mph 24.2 mph 0.04 in Rain Light Rain
12:48 AM 35.6 °F 25.5 °F 33.8 °F 93% 29.61 in 5.0 mi NNE 17.3 mph 23.0 mph 0.05 in Rain Rain
12:55 AM 33.8 °F 24.3 °F 33.8 °F 100% 29.60 in 7.0 mi NNE 13.8 mph 23.0 mph 0.05 in Rain Light Rain
1:08 AM 35.6 °F 27.1 °F 33.8 °F 93% 29.60 in 10.0 mi NNE 12.7 mph 20.7 mph 0.01 in Rain Light Rain
1:15 AM 33.8 °F 24.8 °F 33.8 °F 100% 29.60 in 7.0 mi NNE 12.7 mph 19.6 mph 0.01 in Rain Light Rain
1:29 AM 33.8 °F 25.3 °F 33.8 °F 100% 29.61 in 4.0 mi NNE 11.5 mph 19.6 mph 0.04 in Snow Light Snow
1:35 AM 33.8 °F 25.3 °F 32.0 °F 93% 29.60 in 5.0 mi North 11.5 mph 17.3 mph 0.04 in Snow Light Snow
1:49 AM 33.8 °F 25.3 °F 33.8 °F 100% 29.58 in 4.0 mi North 11.5 mph 18.4 mph 0.07 in Snow Light Snow
1:55 AM 33.8 °F 25.8 °F 32.0 °F 93% 29.58 in 4.0 mi NNE 10.4 mph 16.1 mph 0.08 in Snow Light Snow
2:09 AM 33.8 °F 27.0 °F 33.8 °F 100% 29.58 in 3.0 mi North 8.1 mph - 0.02 in Snow Light Snow
2:15 AM 32.0 °F 24.2 °F 32.0 °F 100% 29.58 in 3.0 mi North 9.2 mph - 0.02 in Snow Light Snow
2:29 AM 33.8 °F 25.8 °F 33.8 °F 100% 29.58 in 2.5 mi North 10.4 mph - 0.04 in Snow Light Snow
2:35 AM 32.0 °F 24.2 °F 32.0 °F 100% 29.57 in 2.5 mi North 9.2 mph - 0.04 in Snow Light Snow
2:48 AM 33.8 °F 26.4 °F 33.8 °F 100% 29.57 in 3.0 mi North 9.2 mph - 0.05 in Snow Light Snow
2:55 AM 32.0 °F 25.6 °F 32.0 °F 100% 29.57 in 2.5 mi North 6.9 mph - 0.06 in Snow Light Snow
3:15 AM 32.0 °F 24.8 °F 32.0 °F 100% 29.58 in 2.0 mi North 8.1 mph - 0.01 in Snow Light Snow
3:29 AM 33.8 °F 27.7 °F 33.8 °F 100% 29.57 in 1.2 mi North 6.9 mph - 0.03 in Snow Light Snow
3:35 AM 32.0 °F 25.6 °F 32.0 °F 100% 29.58 in 1.0 mi North 6.9 mph - 0.04 in Snow Snow
3:48 AM 33.8 °F 27.0 °F 33.8 °F 100% 29.59 in 1.0 mi North 8.1 mph - 0.06 in Snow Snow
3:55 AM 32.0 °F 24.8 °F 32.0 °F 100% 29.59 in 1.0 mi NNW 8.1 mph - 0.07 in Snow Snow
4:09 AM 33.8 °F 25.8 °F 33.8 °F 100% 29.60 in 2.0 mi North 10.4 mph - N/A Snow Light Snow
4:15 AM 32.0 °F 23.0 °F 32.0 °F 100% 29.60 in 2.5 mi North 11.5 mph - N/A Snow Light Snow
4:29 AM 33.8 °F 23.9 °F 33.8 °F 100% 29.60 in - North 15.0 mph - N/A   Unknown
4:35 AM 32.0 °F 21.2 °F 32.0 °F 100% 29.61 in 2.5 mi North 16.1 mph 23.0 mph N/A Snow Light Snow
4:49 AM 33.8 °F 25.3 °F 32.0 °F 93% 29.62 in 1.2 mi NNW 11.5 mph 23.0 mph 0.01 in Snow Light Snow
4:55 AM 32.0 °F 21.2 °F 32.0 °F 100% 29.62 in 1.0 mi North 16.1 mph 24.2 mph 0.01 in Snow Snow
5:09 AM 33.8 °F 23.5 °F 32.0 °F 93% 29.62 in 0.8 mi North 16.1 mph 25.3 mph 0.01 in Snow Snow
5:15 AM 32.0 °F 22.1 °F 32.0 °F 100% 29.62 in 0.5 mi North 13.8 mph 25.3 mph 0.01 in Snow Snow
5:29 AM 33.8 °F 23.2 °F 32.0 °F 93% 29.63 in 0.8 mi North 17.3 mph 31.1 mph 0.01 in Snow Snow
5:35 AM 32.0 °F 20.1 °F 32.0 °F 100% 29.63 in 1.0 mi North 19.6 mph 28.8 mph 0.01 in Snow Snow
5:49 AM 33.8 °F 22.5 °F 32.0 °F 93% 29.63 in 0.8 mi North 19.6 mph 28.8 mph 0.01 in Snow Snow
5:55 AM 32.0 °F 20.8 °F 32.0 °F 100% 29.63 in 1.0 mi North 17.3 mph 28.8 mph 0.01 in Snow Snow
6:09 AM 32.0 °F 23.6 °F 32.0 °F 100% 29.65 in 1.2 mi North 10.4 mph - N/A Snow Light Snow
6:15 AM 32.0 °F 23.0 °F 32.0 °F 100% 29.65 in 1.2 mi North 11.5 mph 18.4 mph N/A Snow Light Snow
6:29 AM 32.0 °F 22.1 °F 30.2 °F 93% 29.65 in 1.2 mi North 13.8 mph 19.6 mph N/A Snow Light Snow
6:35 AM 32.0 °F 22.1 °F 32.0 °F 100% 29.66 in 1.0 mi North 13.8 mph 19.6 mph N/A Snow Light Snow
6:48 AM 32.0 °F 23.0 °F 30.2 °F 93% 29.68 in 1.0 mi North 11.5 mph 18.4 mph N/A Snow Light Snow
6:55 AM 32.0 °F 23.0 °F 30.2 °F 93% 29.69 in 1.0 mi North 11.5 mph 18.4 mph N/A Snow Light Snow
7:08 AM 30.2 °F 19.3 °F 30.2 °F 100% 29.70 in 0.8 mi North 15.0 mph 20.7 mph N/A Snow Light Snow
7:15 AM 32.0 °F 21.6 °F 30.2 °F 93% 29.70 in 1.0 mi North 15.0 mph 20.7 mph N/A Snow Light Snow
7:28 AM 30.2 °F 18.9 °F 28.4 °F 93% 29.71 in 0.8 mi North 16.1 mph 23.0 mph N/A Snow Light Snow
7:35 AM 32.0 °F 23.0 °F 30.2 °F 93% 29.71 in 0.8 mi North 11.5 mph 24.2 mph N/A Snow Light Snow
7:48 AM 30.2 °F 20.2 °F 28.4 °F 93% 29.71 in 1.2 mi North 12.7 mph - N/A Snow Light Snow
7:55 AM 32.0 °F 22.1 °F 30.2 °F 93% 29.71 in 1.5 mi North 13.8 mph - N/A Snow Light Snow
8:15 AM 32.0 °F 24.2 °F 30.2 °F 93% 29.75 in 1.8 mi North 9.2 mph 16.1 mph N/A Snow Light Snow
8:35 AM 32.0 °F 24.8 °F 30.2 °F 93% 29.76 in 3.0 mi North 8.1 mph - N/A Snow Light Snow
8:55 AM 32.0 °F 22.5 °F 28.4 °F 87% 29.78 in 3.0 mi NNW 12.7 mph 20.7 mph N/A Snow Light Snow
9:15 AM 30.2 °F 20.2 °F 28.4 °F 93% 29.80 in 3.0 mi NNW 12.7 mph 18.4 mph N/A Snow Light Snow
9:35 AM 30.2 °F 21.3 °F 28.4 °F 93% 29.81 in 1.8 mi NNW 10.4 mph 20.7 mph N/A Snow Light Snow
9:55 AM 30.2 °F 20.8 °F 26.6 °F 86% 29.80 in 5.0 mi NNW 11.5 mph 17.3 mph N/A   Overcast
10:15 AM 32.0 °F 21.2 °F 26.6 °F 80% 29.80 in 10.0 mi North 16.1 mph 21.9 mph N/A Snow Light Snow
10:35 AM 32.0 °F 22.5 °F 24.8 °F 75% 29.80 in 10.0 mi North 12.7 mph 27.6 mph N/A   Overcast
10:55 AM 32.0 °F 21.2 °F 24.8 °F 75% 29.82 in 10.0 mi North 16.1 mph 21.9 mph N/A   Overcast
11:15 AM 32.0 °F 20.8 °F 24.8 °F 75% 29.82 in 10.0 mi NNW 17.3 mph 23.0 mph N/A   Overcast
11:35 AM 30.2 °F 19.3 °F 24.8 °F 80% 29.84 in 10.0 mi NNW 15.0 mph 18.4 mph N/A   Overcast
11:55 AM 30.2 °F 19.8 °F 24.8 °F 80% 29.86 in 10.0 mi NNW 13.8 mph 18.4 mph N/A   Overcast
12:15 PM 32.0 °F 22.1 °F 23.0 °F 69% 29.87 in 10.0 mi NNW 13.8 mph 19.6 mph N/A   Overcast
12:35 PM 32.0 °F 21.2 °F 23.0 °F 69% 29.88 in 10.0 mi NNW 16.1 mph 23.0 mph N/A   Overcast
12:55 PM 32.0 °F 23.0 °F 23.0 °F 69% 29.89 in 10.0 mi NNW 11.5 mph 19.6 mph N/A   Overcast
1:15 PM 32.0 °F 20.5 °F 23.0 °F 69% 29.89 in 10.0 mi NNW 18.4 mph 24.2 mph N/A   Overcast
1:35 PM 32.0 °F 21.2 °F 23.0 °F 69% 29.89 in 10.0 mi NNW 16.1 mph 20.7 mph N/A   Overcast
1:55 PM 32.0 °F 21.6 °F 23.0 °F 69% 29.90 in 10.0 mi NNW 15.0 mph 21.9 mph N/A   Overcast
2:15 PM 32.0 °F 23.0 °F 23.0 °F 69% 29.91 in 10.0 mi NNW 11.5 mph 18.4 mph N/A   Overcast
2:35 PM 32.0 °F 21.2 °F 23.0 °F 69% 29.91 in 10.0 mi NNW 16.1 mph 19.6 mph N/A   Overcast
2:55 PM 32.0 °F 22.5 °F 21.2 °F 64% 29.91 in 10.0 mi NNW 12.7 mph 20.7 mph N/A   Overcast
3:15 PM 32.0 °F 23.0 °F 21.2 °F 64% 29.91 in 10.0 mi NNW 11.5 mph 16.1 mph N/A   Mostly Cloudy
3:35 PM 32.0 °F 23.6 °F 21.2 °F 64% 29.91 in 10.0 mi North 10.4 mph 18.4 mph N/A   Mostly Cloudy
3:55 PM 32.0 °F 23.0 °F 23.0 °F 69% 29.91 in 10.0 mi North 11.5 mph - N/A   Overcast
4:15 PM 32.0 °F 23.6 °F 21.2 °F 64% 29.92 in 10.0 mi North 10.4 mph 17.3 mph N/A   Overcast
4:35 PM 32.0 °F 23.6 °F 21.2 °F 64% 29.91 in 10.0 mi North 10.4 mph 16.1 mph N/A   Overcast
4:55 PM 30.2 °F 20.8 °F 21.2 °F 69% 29.93 in 10.0 mi NNW 11.5 mph 19.6 mph N/A   Overcast
5:15 PM 30.2 °F 20.2 °F 21.2 °F 69% 29.93 in 10.0 mi NNW 12.7 mph - N/A   Overcast
5:35 PM 30.2 °F 21.3 °F 21.2 °F 69% 29.93 in 10.0 mi NNW 10.4 mph 17.3 mph N/A   Overcast
5:55 PM 30.2 °F 20.8 °F 21.2 °F 69% 29.94 in 10.0 mi North 11.5 mph 17.3 mph N/A   Overcast
6:15 PM 30.2 °F 21.3 °F 21.2 °F 69% 29.94 in 10.0 mi North 10.4 mph - N/A   Overcast
6:35 PM 30.2 °F 21.9 °F 19.4 °F 64% 29.95 in 10.0 mi North 9.2 mph - N/A   Overcast
6:55 PM 30.2 °F 23.4 °F 21.2 °F 69% 29.96 in 10.0 mi North 6.9 mph - N/A   Overcast
7:15 PM 30.2 °F 23.4 °F 19.4 °F 64% 29.97 in 10.0 mi North 6.9 mph - N/A   Overcast
7:35 PM 28.4 °F 20.4 °F 21.2 °F 74% 29.98 in 10.0 mi North 8.1 mph - N/A   Overcast
7:55 PM 28.4 °F 20.4 °F 21.2 °F 74% 29.99 in 10.0 mi NNW 8.1 mph - N/A   Overcast
8:15 PM 28.4 °F 22.2 °F 21.2 °F 74% 30.00 in 10.0 mi North 5.8 mph - N/A Snow Light Snow
8:35 PM 28.4 °F 18.5 °F 19.4 °F 69% 30.01 in 10.0 mi North 11.5 mph 16.1 mph N/A Snow Light Snow
8:55 PM 28.4 °F 19.7 °F 19.4 °F 69% 30.01 in 10.0 mi North 9.2 mph - N/A   Overcast
9:15 PM 26.6 °F 18.2 °F 19.4 °F 74% 30.02 in 10.0 mi North 8.1 mph - N/A   Mostly Cloudy
9:35 PM 26.6 °F 19.1 °F 19.4 °F 74% 30.02 in 10.0 mi North 6.9 mph - N/A   Clear
9:55 PM 26.6 °F 20.0 °F 19.4 °F 74% 30.03 in 10.0 mi North 5.8 mph - N/A   Clear
10:15 PM 26.6 °F 19.1 °F 17.6 °F 69% 30.03 in 10.0 mi North 6.9 mph - N/A   Clear
10:35 PM 26.6 °F 20.0 °F 19.4 °F 74% 30.03 in 10.0 mi North 5.8 mph - N/A   Clear
11:15 PM 24.8 °F 20.5 °F 19.4 °F 80% 30.02 in 10.0 mi NNW 3.5 mph - N/A   Clear
11:35 PM 23.0 °F 18.4 °F 19.4 °F 86% 30.02 in 10.0 mi NW 3.5 mph - N/A   Clear